星链-37174(STARLINK-37174)

导读

STARLINK-37174(NORAD编号68767)是SpaceX星链(Starlink)卫星互联网星座中的一颗低轨通信卫星。星链项目旨在构建全球覆盖的低轨卫星互联网,为地面网络盲区提供宽带接入服务,涵盖家庭宽带、移动场景、海事航空、企业商用及应急通信等多个领域。该卫星运行在近地轨道,通过星座组网实现全球信号覆盖,支持高速互联网接入,具备低时延特点,助力SpaceX实现全球泛在互联的目标,是星链大规模星座部署中的组成单元,服务于个人、商业及特殊行业通信需求。

基本信息
目录编号:
68767
目录名称:
STARLINK-37174
国际标识:
2026-086B
轨道中心:
EARTH
卫星名称:
星链-37174
卫星全名:
星链-37174(STARLINK-37174)
卫星状态:
在轨 (已飞行147 天)
发射日期:
2026-04-19 UTC
国别 :
美国 (US)
星等 :
--
该卫星已列入 空间交会检测服务 Space Conjunction Data Service (SCDS) ,当前飞行风险评估等级: 无高风险
轨道信息
数据来源 国际轨道数据 AOE轨道数据
星历时间 2026-09-13T09:54:31+0800
8小时前
查看轨道信息
2026-09-10T23:00:00+0800
2天前
查看轨道信息
半长轴 6843.682km 6843.707km
偏心率 0.0001284 0.0001546
轨道倾角 97.284° 97.287°
近地点辐角 89.446° 86.139°
升交点赤经 291.551° 289.133°
平近点角 270.693° 52.877°
近地点 464.666km 464.511km
远地点 466.424km 466.629km
周期 93.906分钟 93.907分钟
每日圈数 15.334445 15.33436
详细信息
固有亮度:
5
最大亮度:
2.5
卫星平台:
Starlink V1.0
覆盖范围:
全球
运营商:
太空探索技术公司
运营商所在国:
美国
制造商(研发单位):
太空探索技术公司
制造商所在国:
美国
使用方式:
暂无
卫星简介
Starlink 计划是 SpaceX 推出的全球卫星互联网项目,通过发射低轨道卫星,为全球尤其是偏远地区提供高速、低延迟的互联网服务。自 2019 年起,Starlink 已部署数千颗卫星,旨在缩小全球数字鸿沟,推动互联网普及。该项目还为军事、航空等行业提供通信支持,带来广泛经济效益。
2D轨道图
3D轨道图
轨道高度分析图
轨道倾角分析图
轨道综合分析图
查看轨道综合分析图
与全量物体交会距离演化趋势
与全量物体交会风险概率演化趋势